Flight Track Log - Related Links

Times and Time Zones

All times are in EST time to prevent confusion due to time zone crossing. See the BJS339 flight status page for this flight to view local times or setup timezone preferences in your user account.

Time Position Orientation Groundspeed Altitude Reporting Facility
EST Latitude Longitude Course Direction KTS MPH feet Rate Location/Type
Sat 01:16:42 PM 39.9500 -104.6667 30° Northeast 256 295 8,000  Level Denver TRACON
Sat 01:17:48 PM 40.0167 -104.6167 30° Northeast 243 280 9,700 1,053 Climbing Denver TRACON
Sat 01:18:36 PM 40.0333 -104.5333 75° East 263 303 10,000 316 Climbing Denver TRACON
Sat 01:19:42 PM 40.0500 -104.4333 78° East 297 342 10,300 545 Climbing Denver TRACON
Sat 01:20:15 PM 40.0503 -104.3694 90° East 306 352 10,900 1,642 Climbing Denver Center
Sat 01:21:17 PM 40.0497 -104.2489 90° East 329 379 12,900 2,250 Climbing Denver Center
Sat 01:22:31 PM 40.0450 -104.1167 93° East 337 388 16,000 3,000 Climbing Denver Center
Sat 01:23:33 PM 40.0258 -103.9539 99° East 371 427 19,700 3,048 Climbing Denver Center
Sat 01:24:35 PM 40.0214 -103.8119 92° East 390 449 22,300 2,419 Climbing Denver Center
Sat 01:25:37 PM 40.0381 -103.6675 81° East 388 447 24,700 2,256 Climbing Denver Center
Sat 01:26:40 PM 40.0614 -103.5208 78° East 409 471 27,000 1,920 Climbing Denver Center
Sat 01:27:42 PM 40.0856 -103.3739 78° East 413 475 28,700 1,403 Climbing Denver Center
Sat 01:28:44 PM 40.1103 -103.2189 78° East 433 498 29,900 1,258 Climbing Denver Center
Sat 01:29:46 PM 40.1397 -103.0303 78° East 443 510 31,300 1,258 Climbing Denver Center
Sat 01:30:48 PM 40.1642 -102.8711 79° East 447 514 32,500 1,161 Climbing Denver Center
Sat 01:31:50 PM 40.1892 -102.7133 78° East 445 512 33,700 1,161 Climbing Denver Center
Sat 01:32:52 PM 40.2150 -102.5469 78° East 448 516 34,900 1,065 Climbing Denver Center
Sat 01:33:54 PM 40.2336 -102.4200 79° East 446 513 35,900 1,065 Climbing Denver Center
Sat 01:34:56 PM 40.2656 -102.2186 78° East 445 512 37,100 823 Climbing Denver Center
Sat 01:35:58 PM 40.2919 -102.0389 79° East 451 519 37,600 484 Climbing Denver Center
Sat 01:37:00 PM 40.3158 -101.8822 79° East 457 526 38,100 576 Climbing Denver Center
Sat 01:38:03 PM 40.3381 -101.7261 79° East 457 526 38,800 432 Climbing Denver Center
Sat 01:39:05 PM 40.3703 -101.5433 77° East 462 532 39,000 97 Climbing Denver Center
Sat 01:40:07 PM 40.4150 -101.3853 70° East 482 555 39,000  Level Denver Center
Sat 01:41:09 PM 40.4647 -101.1981 71° East 488 562 39,000  Level Denver Center
Sat 01:42:11 PM 40.5078 -101.0408 70° East 482 555 39,000 145 Level Denver Center
Sat 01:43:13 PM 40.5542 -100.8644 71° East 463 533 39,300 290 Climbing Denver Center
Sat 01:44:15 PM 40.5950 -100.7106 71° East 470 541 39,600 339 Climbing Denver Center
Sat 01:45:17 PM 40.6436 -100.5297 70° East 475 547 40,000 435 Climbing Denver Center
Sat 01:46:19 PM 40.6922 -100.3467 71° East 477 549 40,500 387 Climbing Denver Center
Sat 01:47:21 PM 40.7336 -100.1894 71° East 478 550 40,800 240 Climbing Denver Center
Sat 01:48:24 PM 40.7808 -100.0022 72° East 482 555 41,000 96 Climbing Denver Center
Sat 01:49:26 PM 40.8228 -99.8394 71° East 490 564 41,000  Level Denver Center
Sat 01:50:28 PM 40.8683 -99.6656 71° East 496 571 41,000  Level Denver Center
Sat 01:51:30 PM 40.9253 -99.5011 65° Northeast 492 566 41,000  Level Denver Center
Sat 01:52:32 PM 40.9892 -99.3408 62° Northeast 491 565 41,000  Level Denver Center
Sat 01:53:46 PM 41.0639 -99.1469 63° Northeast 491 565 41,000  Level Denver Center
Sat 01:54:37 PM 41.1072 -99.0003 69° East 497 572 41,000  Level Minneapolis Center
Sat 01:55:39 PM 41.1553 -98.7928 73° East 492 566 41,000  Level Minneapolis Center
Sat 01:56:41 PM 41.1981 -98.6181 72° East 495 570 41,000  Level Minneapolis Center
Sat 01:57:43 PM 41.2417 -98.4311 73° East 507 583 41,000  Level Minneapolis Center
Sat 01:58:45 PM 41.2839 -98.2500 73° East 512 589 41,000  Level Minneapolis Center
Sat 01:59:51 PM 41.3328 -98.0358 73° East 517 595 41,000  Level Minneapolis Center
Sat 02:00:53 PM 41.3758 -97.8539 72° East 517 595 41,000  Level Minneapolis Center
Sat 02:01:55 PM 41.4181 -97.6697 73° East 518 596 41,000  Level Minneapolis Center
Sat 02:02:57 PM 41.4589 -97.4875 73° East 517 595 41,000  Level Minneapolis Center
Sat 02:03:59 PM 41.5008 -97.3036 73° East 517 595 41,000  Level Minneapolis Center
Sat 02:05:02 PM 41.5414 -97.1183 74° East 518 596 41,000  Level Minneapolis Center
Sat 02:06:04 PM 41.5828 -96.9331 73° East 519 597 41,000  Level Minneapolis Center
Sat 02:07:06 PM 41.6331 -96.7050 73° East 527 606 41,000  Level Minneapolis Center
Sat 02:08:08 PM 41.6742 -96.5142 74° East 532 612 41,000  Level Minneapolis Center
Sat 02:09:10 PM 41.7158 -96.3194 74° East 538 619 41,000  Level Minneapolis Center
Sat 02:10:12 PM 41.7575 -96.1242 74° East 539 620 41,000  Level Minneapolis Center
Sat 02:11:14 PM 41.7992 -95.9267 74° East 543 625 41,000  Level Minneapolis Center
Sat 02:12:16 PM 41.8408 -95.7289 74° East 546 628 41,000  Level Minneapolis Center
Sat 02:13:18 PM 41.8814 -95.5289 75° East 552 635 41,000  Level Minneapolis Center
Sat 02:14:20 PM 41.9231 -95.3278 74° East 555 639 41,000  Level Minneapolis Center
Sat 02:15:23 PM 41.9722 -95.0903 74° East 552 635 41,000  Level Minneapolis Center
Sat 02:16:25 PM 42.0106 -94.8922 75° East 549 632 41,000  Level Minneapolis Center
Sat 02:17:27 PM 42.0489 -94.6950 75° East 546 628 41,000  Level Minneapolis Center
Sat 02:18:28 PM 42.0889 -94.4997 75° East 542 624 41,000  Level Minneapolis Center
Sat 02:19:30 PM 42.1264 -94.3031 76° East 542 624 41,000  Level Minneapolis Center
Sat 02:20:32 PM 42.1647 -94.1036 75° East 547 629 41,000  Level Minneapolis Center
Sat 02:21:34 PM 42.2100 -93.8667 75° East 546 628 41,000  Level Minneapolis Center
Sat 02:22:36 PM 42.2422 -93.6961 76° East 547 629 41,000  Level Minneapolis Center
Sat 02:23:38 PM 42.2794 -93.4978 76° East 549 632 41,000  Level Minneapolis Center
Sat 02:24:40 PM 42.3233 -93.2592 76° East 549 632 41,000  Level Minneapolis Center
Sat 02:25:42 PM 42.3608 -93.0592 76° East 552 635 41,000  Level Minneapolis Center
Sat 02:26:44 PM 42.3978 -92.8597 76° East 550 633 41,000  Level Minneapolis Center
Sat 02:27:46 PM 42.4333 -92.6567 77° East 556 640 41,000  Level Minneapolis Center
Sat 02:28:48 PM 42.4689 -92.4544 77° East 557 641 41,000  Level Minneapolis Center
Sat 02:29:50 PM 42.5114 -92.2117 77° East 557 641 41,000  Level Minneapolis Center
Sat 02:30:51 PM 42.5464 -92.0067 77° East 561 646 41,000  Level Minneapolis Center
Sat 02:31:53 PM 42.5808 -91.8025 77° East 563 648 41,000  Level Minneapolis Center
Sat 02:32:55 PM 42.6150 -91.6006 77° East 564 649 41,000  Level Minneapolis Center
Sat 02:33:57 PM 42.6550 -91.3589 77° East 565 650 41,000  Level Minneapolis Center
Sat 02:34:59 PM 42.6872 -91.1550 78° East 562 647 41,000  Level Minneapolis Center
Sat 02:36:01 PM 42.7211 -90.9492 77° East 564 649 41,000  Level Minneapolis Center
Sat 02:37:03 PM 42.7531 -90.7411 78° East 565 650 41,000  Level Minneapolis Center
Sat 02:38:05 PM 42.7864 -90.5331 78° East 566 651 41,000  Level Minneapolis Center
Sat 02:39:07 PM 42.8242 -90.2833 78° East 565 650 41,000  Level Minneapolis Center
Sat 02:40:08 PM 42.8592 -90.0878 76° East 561 646 41,000  Level Minneapolis Center
Sat 02:41:10 PM 42.8919 -89.8806 78° East 560 644 41,000  Level Minneapolis Center
Sat 02:42:27 PM 42.9314 -89.5842 80° East 564 649 41,000  Level Chicago Center
Sat 02:43:29 PM 42.9628 -89.3747 78° East 564 649 41,000  Level Chicago Center
Sat 02:44:30 PM 42.9928 -89.1656 79° East 564 649 41,000  Level Chicago Center
Sat 02:45:32 PM 43.0228 -88.9547 79° East 567 652 41,000  Level Chicago Center
Sat 02:46:34 PM 43.0536 -88.7442 79° East 570 656 41,000  Level Chicago Center
Sat 02:47:35 PM 43.0822 -88.4928 81° East 565 650 41,000  Level Chicago Center
Sat 02:48:37 PM 43.1036 -88.2819 82° East 565 650 41,000  Level Chicago Center
Sat 02:49:39 PM 43.1250 -88.0697 82° East 570 656 41,000  Level Chicago Center
Sat 02:50:40 PM 43.1461 -87.8592 82° East 565 650 41,000  Level Chicago Center
Sat 02:51:42 PM 43.1661 -87.6464 83° East 567 652 41,000  Level Chicago Center
Sat 02:52:44 PM 43.1878 -87.4322 82° East 569 655 41,000  Level Chicago Center
Sat 02:53:45 PM 43.2100 -87.2006 82° East 570 656 41,000  Level Chicago Center
Sat 02:54:47 PM 43.2300 -86.9844 83° East 572 658 41,000  Level Chicago Center
Sat 02:55:49 PM 43.2486 -86.7689 83° East 570 656 41,000  Level Chicago Center
Sat 02:56:50 PM 43.2689 -86.5531 83° East 570 656 41,000  Level Chicago Center
Sat 02:57:52 PM 43.2911 -86.2917 83° East 572 658 41,000  Level Chicago Center
Sat 02:58:54 PM 43.3092 -86.0717 83° East 573 659 41,000  Level Chicago Center
Sat 02:59:56 PM 43.3272 -85.8519 83° East 572 658 41,000  Level Chicago Center
Sat 03:00:57 PM 43.3439 -85.6344 84° East 569 655 41,000  Level Chicago Center
Sat 03:01:59 PM 43.3611 -85.4211 84° East 563 648 41,000  Level Chicago Center
Sat 03:03:01 PM 43.3781 -85.2061 84° East 565 650 41,000  Level Chicago Center
Sat 03:04:02 PM 43.3931 -84.9897 84° East 567 652 41,000  Level Chicago Center
Sat 03:05:04 PM 43.4100 -84.7725 84° East 569 655 41,000  Level Chicago Center
Sat 03:06:06 PM 43.4242 -84.5553 85° East 571 657 41,000  Level Chicago Center
Sat 03:06:50 PM 43.4356 -84.3803 85° East 571 657 41,000  Level Cleveland Center
Sat 03:07:52 PM 43.4508 -84.1628 84° East 572 658 41,000  Level Cleveland Center
Sat 03:08:53 PM 43.4642 -83.9400 85° East 574 661 41,000  Level Cleveland Center
Sat 03:09:55 PM 43.4781 -83.7208 85° East 574 661 41,000  Level Cleveland Center
Sat 03:10:57 PM 43.4917 -83.5017 85° East 573 659 41,000  Level Cleveland Center
Sat 03:11:59 PM 43.5069 -83.2369 85° East 576 663 41,000  Level Cleveland Center
Sat 03:13:00 PM 43.5181 -83.0169 86° East 575 662 41,000  Level Cleveland Center
Sat 03:14:02 PM 43.5306 -82.7964 85° East 577 664 41,000  Level Cleveland Center
Sat 03:15:04 PM 43.5431 -82.5753 85° East 578 665 41,000  Level Cleveland Center
Sat 03:16:05 PM 43.5539 -82.3528 86° East 580 667 41,000  Level Cleveland Center
Sat 03:17:07 PM 43.5650 -82.1319 86° East 579 666 41,000  Level Cleveland Center
Sat 03:18:32 PM 43.5667 -81.7667 90° East 580 667 41,000  Level Toronto Center
Sat 03:19:32 PM 43.5833 -81.5667 83° East 580 667 41,000  Level Toronto Center
Sat 03:20:32 PM 43.5833 -81.3333 90° East 580 667 41,000  Level Toronto Center
Sat 03:21:32 PM 43.6000 -81.1000 84° East 580 667 41,000  Level Toronto Center
Sat 03:22:32 PM 43.6000 -80.9000 90° East 590 679 41,000  Level Toronto Center
Sat 03:23:32 PM 43.6167 -80.6667 84° East 590 679 41,000  Level Toronto Center
Sat 03:24:32 PM 43.6333 -80.4333 84° East 590 679 41,000  Level Toronto Center
Sat 03:25:32 PM 43.6333 -80.2333 90° East 590 679 41,000  Level Toronto Center
Sat 03:26:32 PM 43.6333 -79.9833 90° East 580 667 41,000  Level Toronto Center
Sat 03:27:32 PM 43.6500 -79.8000 83° East 580 667 41,000  Level Toronto Center
Sat 03:28:32 PM 43.6833 -79.5333 80° East 580 667 41,000  Level Toronto Center
Sat 03:29:32 PM 43.7333 -79.3500 69° East 570 656 41,000  Level Toronto Center
Sat 03:30:32 PM 43.8000 -79.1500 65° Northeast 570 656 41,000  Level Toronto Center
Sat 03:31:32 PM 43.8667 -78.9333 67° East 570 656 41,000  Level Toronto Center
Sat 03:32:32 PM 43.9333 -78.7333 65° Northeast 570 656 41,000  Level Toronto Center
Sat 03:33:32 PM 43.9833 -78.5500 69° East 570 656 41,000  Level Toronto Center
Sat 03:34:32 PM 44.0333 -78.3333 72° East 570 656 41,000  Level Toronto Center
Sat 03:35:32 PM 44.0833 -78.1167 72° East 570 656 41,000  Level Toronto Center
Sat 03:36:32 PM 44.1500 -77.9167 65° Northeast 570 656 41,000  Level Toronto Center
Sat 03:37:32 PM 44.2167 -77.7000 67° East 570 656 41,000  Level Toronto Center
Sat 03:38:32 PM 44.2667 -77.5167 69° East 580 667 41,000  Level Toronto Center
Sat 03:39:32 PM 44.3167 -77.3000 72° East 580 667 41,000  Level Toronto Center
Sat 03:40:32 PM 44.3833 -77.0667 68° East 580 667 41,000  Level Toronto Center
Sat 03:41:13 PM 44.4167 -76.9833 61° Northeast 570 656 41,000  Level Montreal Center
Sat 03:42:13 PM 44.4833 -76.7500 68° East 570 656 41,000  Level Montreal Center
Sat 03:43:13 PM 44.5333 -76.5500 71° East 570 656 41,000 -50 Level Montreal Center
Sat 03:44:13 PM 44.5833 -76.3500 71° East 570 656 40,900 -750 Descending Montreal Center
Sat 03:45:13 PM 44.6500 -76.1333 67° East 580 667 39,500 -1,850 Descending Montreal Center
Sat 03:46:13 PM 44.7000 -75.9167 72° East 580 667 37,200 -3,500 Descending Montreal Center
Sat 03:47:13 PM 44.7667 -75.7167 65° Northeast 570 656 32,500 -4,000 Descending Montreal Center
Sat 03:48:13 PM 44.8167 -75.5167 71° East 550 633 29,200 -3,700 Descending Montreal Center
Sat 03:49:13 PM 44.8667 -75.3333 69° East 500 575 25,100 -3,950 Descending Montreal Center
Sat 03:50:13 PM 44.9000 -75.1667 74° East 460 529 21,300 -4,000 Descending Montreal Center
Sat 03:51:13 PM 44.9500 -75.0000 67° East 430 495 17,100 -4,050 Descending Montreal Center
Sat 03:52:13 PM 45.0500 -74.9500 19° North 350 403 13,200 -3,600 Descending Montreal Center
Sat 03:53:13 PM 45.1167 -74.9000 28° Northeast 340 391 9,900 -2,400 Descending Montreal Center
Sat 03:54:13 PM 45.1333 -74.7833 79° East 310 357 8,400 -950 Descending Montreal Center
Sat 03:55:13 PM 45.1500 -74.6667 79° East 290 334 8,000 -250 Descending Montreal Center
Sat 03:56:13 PM 45.1833 -74.5500 68° East 290 334 7,900  Descending Montreal Center
Sat 03:57:13 PM 45.2000 -74.4500 77° East 290 334 8,000 -300 Climbing Montreal Center
Sat 03:58:13 PM 45.2167 -74.3333 78° East 290 334 7,300 -1,100 Descending Montreal Center
Sat 03:59:13 PM 45.2333 -74.2333 77° East 290 334 5,800 -1,500 Descending Montreal Center
Sat 04:00:13 PM 45.2500 -74.1167 78° East 270 311 4,300 -1,400 Descending Montreal Center
Sat 04:01:13 PM 45.2667 -74.0333 74° East 230 265 3,000 -650 Descending Montreal Center
Sat 04:02:13 PM 45.2833 -73.9667 70° East 190 219 3,000  Level Montreal Center
Sat 04:03:13 PM 45.3167 -73.9000 55° Northeast 180 207 3,000 -100 Level Montreal Center
Sat 04:04:13 PM 45.3500 -73.8500 47° Northeast 160 184 2,800 -550 Descending Montreal Center
Sat 04:05:13 PM 45.3833 -73.8167 35° Northeast 140 161 1,900 -750 Descending Montreal Center
Sat 04:06:13 PM 45.4000 -73.8000 35° Northeast 120 138 1,300 -700 Descending Montreal Center
Sat 04:07:13 PM 45.4333 -73.7500 46° Northeast 120 138 500 -600 Descending Montreal Center
Sat 04:08:13 PM 45.4500 -73.7167 55° Northeast 70 81 100 -200 Descending Montreal Center
Sat 04:09:13 PM 45.4667 -73.7000 35° Northeast 30 35 100  Level Montreal Center

Login

Don't have an account? Register now (free) for customized features, flight alerts, and more!